Flag for Germany Weather past 2 weeks in Stuttgart, Baden-Württemberg, Germany

Now
77 °F

Passing clouds.


Feels Like: 79 °F
Forecast: 53 / 78 °F
Wind: 10 mph from North

Location: Stuttgart-Echterdingen

Current Time: Jun 3, 2015 at 6:03:57 PM

Latest Report: Jun 3, 2015 at 5:20 PM


Visibility: N/A

Pressure: 30.18 "Hg

Humidity: 47%

Dew point: 55 °F

Location of StuttgartLocation

Historic Weather in Stuttgart — Graph

°F

Stuttgart temperature yesterday

Maximum temperature yesterday: 79 °F (at 4:50 PM)
Minimum temperature yesterday: 50 °F (at 5:20 AM)
Average temperature yesterday: 65 °F

Past Weeks' High & Low Weather Summary

 TemperatureHumidityPressure
High81 °F (Jun 3, 1:20 PM)100% (May 26, 1:50 AM)30.30 "Hg (May 26, 1:50 AM)
Low37 °F (May 22, 5:50 AM)24% (Jun 3, 12:20 PM)29.80 "Hg (May 29, 4:50 PM)
Average57 °F67%30.06 "Hg
* Reported May 19 4:20 PM — Jun 3 4:50 PM, Stuttgart, Weather by CustomWeather, © 2015

Note: Actual official high and low records may vary slightly from our data, if they occured in-between our weather recording intervals... More about our weather records

Advertising

Stuttgart weather history for previous 24 hours

 ConditionsComfort  
Time TempWeatherWind HumidityBarometerVisibility
4:50 PM
Wed, Jun 3
79 °FPassing clouds.9 mph45%30.18 "HgN/A
4:20 PM77 °FPassing clouds.9 mph44%30.18 "HgN/A
3:50 PM77 °FPassing clouds.9 mph47%30.18 "HgN/A
3:20 PM77 °FPassing clouds.12 mph47%30.18 "HgN/A
2:50 PM77 °FPassing clouds.12 mph44%30.18 "HgN/A
2:20 PM79 °FPassing clouds.9 mph39%30.18 "HgN/A
1:50 PM81 °FPassing clouds.9 mph28%30.18 "HgN/A
1:20 PM81 °FPassing clouds.7 mph24%30.18 "HgN/A
12:50 PM79 °FPassing clouds.7 mph26%30.18 "HgN/A
12:20 PM79 °FPassing clouds.10 mph24%30.18 "HgN/A
11:50 AM77 °FSunny.7 mph26%30.18 "Hg10 mi
11:20 AM75 °FPassing clouds.12 mph34%30.18 "HgN/A
10:50 AM75 °FPassing clouds.9 mph36%30.18 "HgN/A
10:20 AM73 °FPassing clouds.9 mph41%30.18 "HgN/A
9:50 AM73 °FSunny.9 mph47%30.18 "Hg10 mi
9:20 AM72 °FPassing clouds.7 mph50%30.18 "HgN/A
8:50 AM70 °FPassing clouds.5 mph53%30.18 "HgN/A
8:20 AM68 °FPassing clouds.5 mph56%30.18 "HgN/A
7:50 AM68 °FPassing clouds.5 mph60%30.15 "HgN/A
7:20 AM66 °FPassing clouds.5 mph68%30.15 "HgN/A
6:50 AM63 °FPassing clouds.3 mph73%30.15 "HgN/A
6:20 AM61 °FPassing clouds.5 mph72%30.15 "HgN/A
5:20 AM57 °FClear.7 mph77%30.12 "Hg10 mi
4:50 AM57 °FPassing clouds.3 mph77%30.12 "HgN/A
4:20 AM61 °FPassing clouds.3 mph68%30.12 "HgN/A
3:50 AM57 °FClear.6 mph77%30.12 "Hg10 mi
3:20 AM57 °FClear.5 mph77%30.12 "Hg10 mi
2:50 AM57 °FClear.1 mph77%30.12 "Hg10 mi
2:20 AM59 °FPassing clouds.5 mph72%30.12 "HgN/A
1:50 AM59 °FPassing clouds.3 mph72%30.12 "HgN/A
1:20 AM59 °FClear.5 mph72%30.12 "Hg10 mi
12:50 AM59 °FPassing clouds.3 mph68%30.12 "HgN/A
12:20 AM61 °FClear.5 mph68%30.09 "Hg10 mi
11:20 PM
Tue, Jun 2
68 °FPassing clouds.6 mph49%30.09 "HgN/A
10:50 PM66 °FClear.7 mph52%30.09 "Hg10 mi
10:20 PM68 °FClear.5 mph49%30.09 "Hg10 mi
9:50 PM68 °FPassing clouds.5 mph46%30.09 "HgN/A
9:20 PM72 °FPassing clouds.5 mph38%30.07 "HgN/A
8:50 PM73 °FPassing clouds.6 mph33%30.07 "HgN/A
8:20 PM75 °FPassing clouds.8 mph29%30.07 "HgN/A
7:50 PM77 °FPassing clouds.9 mph28%30.07 "HgN/A
7:20 PM77 °FPassing clouds.8 mph34%30.07 "HgN/A
6:50 PM77 °FPassing clouds.13 mph34%30.07 "HgN/A
6:20 PM77 °FSunny.13 mph36%30.07 "Hg10 mi
Weather by CustomWeather, © 2015

See weather overviewHow to use our weather pages